TimeCST,TemperatureF,Dew PointF,Humidity,Sea Level PressureIn,VisibilityMPH,Wind Direction,Wind SpeedMPH,Gust SpeedMPH,PrecipitationIn,Events,Conditions,WindDirDegrees,DateUTC
12:13 AM,19.4,12.2,74,29.66,3.0,South,10.4,16.1,N/A,Snow,Light Snow,170,2013-02-18 06:13:00
12:34 AM,19.4,12.2,74,29.66,2.5,South,13.8,17.3,N/A,Snow,Light Snow,180,2013-02-18 06:34:00
12:54 AM,19.4,12.2,74,29.65,4.0,South,9.2,17.3,N/A,Snow,Light Snow,170,2013-02-18 06:54:00
1:13 AM,19.4,12.2,74,29.65,2.5,South,10.4,-,N/A,Snow,Light Snow,170,2013-02-18 07:13:00
1:33 AM,19.4,14.0,80,29.64,4.0,SSE,9.2,17.3,N/A,Snow,Light Snow,160,2013-02-18 07:33:00
1:54 AM,19.4,15.8,86,29.64,4.0,SSE,9.2,-,N/A,Snow,Light Snow,150,2013-02-18 07:54:00
2:14 AM,19.4,15.8,86,29.63,3.0,SSE,6.9,-,N/A,Snow,Light Snow,150,2013-02-18 08:14:00
2:34 AM,19.4,12.2,74,29.62,7.0,SSE,8.1,17.3,N/A,Snow,Light Snow,160,2013-02-18 08:34:00
2:53 AM,19.4,14.0,80,29.61,4.0,SSE,5.8,-,N/A,Snow,Light Snow,160,2013-02-18 08:53:00
3:13 AM,19.4,12.2,74,29.61,10.0,South,6.9,-,N/A,,Overcast,170,2013-02-18 09:13:00
3:34 AM,19.4,12.2,74,29.59,10.0,SSE,6.9,-,N/A,,Overcast,160,2013-02-18 09:34:00
3:53 AM,19.4,14.0,80,29.58,10.0,SSE,6.9,-,N/A,,Overcast,150,2013-02-18 09:53:00
4:13 AM,19.4,14.0,80,29.58,10.0,SE,5.8,-,0.01,,Overcast,140,2013-02-18 10:13:00
4:34 AM,21.2,14.0,74,29.58,10.0,SSE,8.1,-,0.01,,Mostly Cloudy,160,2013-02-18 10:34:00
4:53 AM,21.2,15.8,80,29.56,10.0,SE,4.6,-,0.01,,Mostly Cloudy,140,2013-02-18 10:53:00
5:13 AM,21.2,15.8,80,29.56,7.0,SE,5.8,-,N/A,,Overcast,140,2013-02-18 11:13:00
5:33 AM,21.2,15.8,80,29.57,10.0,SE,6.9,-,N/A,,Overcast,130,2013-02-18 11:33:00
5:54 AM,21.2,15.8,80,29.56,10.0,SE,5.8,-,N/A,,Overcast,140,2013-02-18 11:54:00
6:14 AM,21.2,15.8,80,29.56,10.0,SE,5.8,-,N/A,,Overcast,140,2013-02-18 12:14:00
6:34 AM,21.2,15.8,80,29.55,10.0,SE,4.6,-,N/A,,Overcast,140,2013-02-18 12:34:00
6:54 AM,21.2,15.8,80,29.53,10.0,SE,5.8,-,N/A,,Overcast,140,2013-02-18 12:54:00
7:13 AM,21.2,15.8,80,29.53,10.0,SE,5.8,-,N/A,,Overcast,130,2013-02-18 13:13:00
7:34 AM,21.2,15.8,80,29.54,10.0,SSE,4.6,-,N/A,,Overcast,150,2013-02-18 13:34:00
8:13 AM,21.2,15.8,80,29.52,10.0,SE,4.6,-,N/A,,Overcast,140,2013-02-18 14:13:00
8:33 AM,21.2,15.8,80,29.52,10.0,SE,4.6,-,N/A,,Overcast,130,2013-02-18 14:33:00
8:54 AM,21.2,15.8,80,29.51,10.0,SE,4.6,-,N/A,,Overcast,130,2013-02-18 14:54:00
9:13 AM,23.0,15.8,74,29.50,10.0,SE,3.5,-,N/A,,Overcast,140,2013-02-18 15:13:00
9:34 AM,23.0,17.6,80,29.50,10.0,Calm,Calm,-,N/A,,Overcast,0,2013-02-18 15:34:00
9:53 AM,24.8,17.6,74,29.48,10.0,Calm,Calm,-,N/A,,Overcast,0,2013-02-18 15:53:00
10:14 AM,24.8,17.6,74,29.48,10.0,SE,6.9,-,N/A,,Overcast,140,2013-02-18 16:14:00
10:33 AM,24.8,17.6,74,29.48,10.0,SSE,4.6,-,N/A,,Overcast,160,2013-02-18 16:33:00
10:53 AM,24.8,17.6,74,29.49,10.0,SSE,6.9,-,N/A,,Overcast,150,2013-02-18 16:53:00
11:14 AM,24.8,17.6,74,29.49,10.0,SSE,5.8,-,N/A,,Overcast,160,2013-02-18 17:14:00
11:33 AM,24.8,17.6,74,29.48,10.0,SSE,5.8,-,N/A,,Overcast,160,2013-02-18 17:33:00
11:53 AM,24.8,17.6,74,29.47,7.0,SSE,3.5,-,N/A,,Overcast,160,2013-02-18 17:53:00
12:14 PM,24.8,17.6,74,29.46,5.0,Calm,Calm,-,N/A,,Haze,0,2013-02-18 18:14:00
12:33 PM,24.8,17.6,74,29.46,5.0,Calm,Calm,-,N/A,,Haze,0,2013-02-18 18:33:00
12:53 PM,24.8,17.6,74,29.45,5.0,Calm,Calm,-,0.01,,Haze,0,2013-02-18 18:53:00
1:13 PM,24.8,17.6,74,29.46,5.0,Calm,Calm,-,N/A,,Haze,0,2013-02-18 19:13:00
1:34 PM,24.8,19.4,80,29.45,4.0,Calm,Calm,-,N/A,,Haze,0,2013-02-18 19:34:00
1:53 PM,23.0,19.4,86,29.45,2.5,Calm,Calm,-,0.01,,Overcast,0,2013-02-18 19:53:00
2:13 PM,23.0,19.4,86,29.46,2.5,Calm,Calm,-,0.01,,Overcast,0,2013-02-18 20:13:00
2:34 PM,23.0,19.4,86,29.46,2.5,Calm,Calm,-,0.01,,Overcast,0,2013-02-18 20:34:00
2:53 PM,24.8,19.4,80,29.46,2.0,North,3.5,-,0.01,,Overcast,10,2013-02-18 20:53:00
3:14 PM,24.8,19.4,80,29.46,2.5,NNE,4.6,-,N/A,,Overcast,20,2013-02-18 21:14:00
3:34 PM,24.8,19.4,80,29.46,3.0,North,3.5,-,N/A,,Overcast,350,2013-02-18 21:34:00
3:53 PM,24.8,19.4,80,29.47,3.0,North,3.5,-,N/A,,Overcast,350,2013-02-18 21:53:00
4:14 PM,24.8,19.4,80,29.47,4.0,NNW,4.6,-,N/A,,Overcast,340,2013-02-18 22:14:00
4:33 PM,24.8,19.4,80,29.47,4.0,North,4.6,-,N/A,,Overcast,360,2013-02-18 22:33:00
4:53 PM,23.0,19.4,86,29.48,3.0,North,3.5,-,N/A,,Overcast,350,2013-02-18 22:53:00
5:13 PM,23.0,19.4,86,29.48,3.0,North,4.6,-,N/A,,Overcast,350,2013-02-18 23:13:00
5:33 PM,23.0,19.4,86,29.49,4.0,North,5.8,-,N/A,,Overcast,350,2013-02-18 23:33:00
5:53 PM,23.0,19.4,86,29.49,5.0,North,4.6,-,N/A,Snow,Light Snow,350,2013-02-18 23:53:00
6:14 PM,23.0,19.4,86,29.50,5.0,North,5.8,-,N/A,Snow,Light Snow,350,2013-02-19 00:14:00
6:33 PM,23.0,19.4,86,29.50,7.0,NNW,4.6,-,N/A,Snow,Light Snow,340,2013-02-19 00:33:00
6:53 PM,23.0,17.6,80,29.50,7.0,NNW,9.2,-,N/A,Snow,Light Snow,340,2013-02-19 00:53:00
7:14 PM,21.2,17.6,86,29.50,7.0,NNW,5.8,-,N/A,Snow,Light Snow,340,2013-02-19 01:14:00
7:33 PM,21.2,17.6,86,29.50,7.0,NNW,6.9,16.1,N/A,Snow,Light Snow,330,2013-02-19 01:33:00
7:53 PM,21.2,17.6,86,29.49,5.0,NNW,8.1,-,N/A,Snow,Light Snow,330,2013-02-19 01:53:00
8:14 PM,21.2,17.6,86,29.49,4.0,NNW,12.7,-,N/A,Snow,Light Snow,340,2013-02-19 02:14:00
8:34 PM,21.2,17.6,86,29.49,3.0,NNW,13.8,18.4,N/A,Snow,Light Snow,340,2013-02-19 02:34:00
8:54 PM,19.4,14.0,80,29.51,2.5,NNW,21.9,28.8,N/A,Snow,Light Snow,330,2013-02-19 02:54:00
9:14 PM,17.6,12.2,79,29.51,2.0,NNW,15.0,26.5,N/A,Snow,Light Snow,330,2013-02-19 03:14:00
9:33 PM,15.8,8.6,73,29.53,2.5,NNW,17.3,26.5,N/A,Snow,Light Snow,330,2013-02-19 03:33:00
9:53 PM,14.0,6.8,73,29.53,3.0,NNW,19.6,27.6,N/A,Snow,Light Snow,330,2013-02-19 03:53:00
10:14 PM,12.2,6.8,79,29.53,2.5,NNW,17.3,25.3,N/A,Snow,Light Snow,330,2013-02-19 04:14:00
10:33 PM,10.4,3.2,73,29.53,2.0,NW,13.8,26.5,N/A,Snow,Light Snow,320,2013-02-19 04:33:00
10:53 PM,8.6,3.2,79,29.53,2.5,NW,15.0,23.0,N/A,Snow,Light Snow,310,2013-02-19 04:53:00
11:13 PM,8.6,1.4,73,29.54,2.5,NW,13.8,28.8,N/A,Snow,Light Snow,320,2013-02-19 05:13:00
11:34 PM,6.8,-0.4,72,29.53,3.0,NNW,17.3,31.1,N/A,Snow,Light Snow,330,2013-02-19 05:34:00
11:54 PM,6.8,-0.4,72,29.54,2.0,NNW,21.9,34.5,N/A,Snow,Light Snow,330,2013-02-19 05:54:00